Date,TemperatureHighF,TemperatureAvgF,TemperatureLowF,DewpointHighF,DewpointAvgF,DewpointLowF,HumidityHigh,HumidityAvg,HumidityLow,PressureMaxIn,PressureMinIn,WindSpeedMaxMPH,WindSpeedAvgMPH,GustSpeedMaxMPH,PrecipitationSumIn
2013-3-1,63,55,49,48,41,34,80,61,33,30.04,29.92,17,4,24,0.00
2013-3-2,56,50,43,38,34,26,70,55,32,30.07,29.98,28,6,38,0.00
2013-3-3,50,44,39,35,31,30,75,62,48,30.18,30.03,23,4,26,0.00
2013-3-4,62,50,37,47,32,24,82,54,26,30.26,30.14,8,1,9,0.00
2013-3-5,72,60,51,57,48,39,80,65,44,30.21,30.01,16,6,21,0.00
2013-3-6,66,58,49,58,38,26,80,51,24,30.18,29.94,18,6,24,0.00
2013-3-7,65,52,42,46,38,32,79,60,39,30.26,30.15,8,1,11,0.00
2013-3-8,74,56,42,51,42,34,82,61,28,30.26,30.14,7,1,9,0.00
2013-3-9,73,60,46,52,47,37,82,65,39,30.27,30.17,11,1,16,0.00
2013-3-10,75,64,53,57,52,44,81,66,48,30.22,30.10,16,4,28,0.00
2013-3-11,74,66,57,61,57,51,81,72,58,30.14,29.91,15,6,18,0.00
2013-3-12,69,65,56,62,58,49,81,76,67,30.05,29.87,14,7,21,0.01
2013-3-13,74,61,50,51,41,30,82,53,20,30.20,30.06,9,1,14,0.00
2013-3-14,66,55,46,44,35,29,76,50,26,30.31,30.19,4,0,11,0.00
2013-3-15,70,56,42,52,40,33,82,59,31,30.32,30.16,9,1,12,0.00
2013-3-16,76,63,53,52,47,40,81,59,30,30.21,30.06,9,4,16,0.00
2013-3-17,73,64,56,61,52,44,81,65,47,30.17,30.02,12,2,15,0.00
2013-3-18,74,69,62,65,61,54,81,77,70,30.08,29.92,11,4,14,0.02
2013-3-19,82,71,64,65,59,52,81,67,49,30.07,29.91,8,1,11,0.00
2013-3-20,72,65,58,64,57,47,81,75,66,30.01,29.82,7,1,11,0.14
2013-3-21,69,58,48,46,39,26,83,54,21,30.01,29.89,13,1,17,0.01
2013-3-22,75,61,46,56,47,40,82,63,40,30.05,29.92,9,2,15,0.00
2013-3-23,80,70,61,69,61,52,80,74,64,30.01,29.78,17,4,22,0.02
2013-3-24,77,72,68,69,64,57,80,76,65,29.85,29.64,27,11,33,0.08
2013-3-25,70,63,54,60,44,29,81,53,22,30.07,29.72,16,5,22,0.00
2013-3-26,58,52,45,39,30,20,64,45,24,30.27,30.06,21,5,26,0.00
2013-3-27,63,50,38,39,32,25,73,54,26,30.35,30.23,10,1,16,0.00
2013-3-28,72,55,40,43,36,26,82,54,23,30.33,30.20,9,0,13,0.00
2013-3-29,72,59,44,52,40,30,81,53,22,30.36,30.21,9,1,13,0.00
2013-3-30,75,64,53,55,49,39,81,61,40,30.29,30.13,13,1,15,0.00
2013-3-31,77,69,62,61,56,50,79,64,39,30.19,30.01,15,4,16,0.00